Tracking 28125 objects as of 4-Oct-2023
HD Live streaming from Space Station
objects crossing your sky now

XTAR-EUR

Track XTAR-EUR now!
XTAR-EUR is classified as:


NORAD ID: 28542
Int'l Code: 2005-005A
Perigee: 35,778.9 km
Apogee: 35,809.1 km
Inclination: 1.8 °
Period: 1,436.1 minutes
Semi major axis: 42164 km
RCS: 6.3095 m2 (large)
Launch date: February 12, 2005
Source: United States (US)
Launch site: FRENCH GUIANA (FRGUI)

X-band; designed to be compatible with U.S. and NATO SATCOM systems.
Your satellite tracking list
Your tracking list is empty




NASA's NSSDC Master Catalog

Two Line Element Set (TLE):
1 28542U 05005A   23276.13628581  .00000143  00000-0  00000-0 0  9993
2 28542   1.7786  88.9540 0003574 123.2492 237.4474  1.00270882 68281
Source of the keplerian elements: AFSPC